Showing default

ICEYE-X62, 66755

Orbit data source: Space-Track

ICEYE-X62, 66755 is a Polish payload satellite in SSO that was launched on Fri, 28 Nov 2025 UTC via an FALCON 9 launch vehicle from the Air Force Western Test Range (AFWTR). Payload-class satellites include a variety of spacecraft equipped with specific instruments for various scientific and technological missions. These include communications satellites like Starlink; space stations such as the ISS; scientific satellites like the Hubble; Earth observation satellites from companies like Planet Labs, Umbra, and HawkEye 360; GPS; miniature CubeSats for education and research; and military/defense satellites.

Loading next visibility...
Identifier
66755, 2025-276CT
Orbit
SSO
Country
Flag of PLPL / POL
Related business
Manufacturer
ICEYE
Mission
Operational Commercial Radar Imaging
Bus & Motor
ICEYE, Unknown motor
Mass
120 kg wet, 120 kg dry
Launch date (UTC)
2025-11-28 (6 months ago)
Launch vehicle
FALCON 9
Launch site
Air Force Western Test Range (AFWTR)
Object type
Payload
Rocket body
Debris
Shape & HBR
Box + 1 Pan, 2.4 m
Radar Cross Section
0.776 m²

Expand to show TLE details & history
Last TLE update: 6 hours ago

TLE from 6 hours ago
0 ICEYE-X62
1 66755U 25276CT  26144.93576737  .00001849  00000-0  11784-3 0  9991
2 66755  97.4208 217.8736 0003964  88.5197 271.6487 15.09915759 26829
Epoch: 2026-05-24T22:27Z
TLE epoch observation values (Epoch: 2026-05-24T22:27:30.300Z)
Latitude
-0.00001°
Longitude
-1.53342°
Altitude
539.456 km
Speed
7.593 km/s
True Right ascension
14h 31m 29s
True Declination
0° 00' 00"
Sunlit
Object was in full shadow at epoch
Visualization orbit readout
Latitude
Unknown
Longitude
Unknown
Altitude
Unknown
Speed
Unknown
Apparent Right ascension
Unknown
Apparent Declination
Unknown
Sunlit
N/A
Visualization observer readout
Local Sidereal Time
13:55:53
Azimuth
Unknown
Elevation
Unknown
Doppler factor
Unknown
Orbital elements
Apogee altitude
536.177 km
Perigee altitude
530.697 km
Semi-major axis
6,911.574 km
Eccentricity
0.0004
Inclination
97.4208°
RAAN
217.8736°
Arg. of periapsis
88.5197°
True anomaly
271.60329°
Mean anomaly
271.6487°
Eccentric anomaly
271.626°
Mean motion
3.77727 °/min
Orbital period
95.31 mins
BSTAR
0.00011784
Loading maneuver chart data...
Computing Atmospheric mass density...
Loading historical data...
Loading historical data...
Loading historical data...
Loading historical data...
Loading historical data...
Loading historical data...
Loading historical data...

Documentation

Showing up to 5 results
|